Regional Weather Roundup
Issued by NWS

Home | Current Version | Previous Version | Text Only | Print | Product List | Glossary Off
Versions: 1 2 3 4 5 6 7 8 9 10 11 12 13 14 15 16 17 18 19 20 21 22 23 24 25 26 27 28 29 30 31 32 33 34 35 36 37 38 39 40 41 42 43 44 45 46 47 48 49 50

000
ASUS43 KMPX 222210
RWRMN
WEATHER ROUNDUP FOR MINNESOTA
NATIONAL WEATHER SERVICE TWIN CITIES/CHANHASSEN MN
500 PM CDT TUE APR 22 2014


NOTE: "FAIR" INDICATES FEW OR NO CLOUDS BELOW 12,000 FEET WITH NO
SIGNIFICANT WEATHER AND/OR OBSTRUCTIONS TO VISIBILITY. N/A MEANS
CURRENT SKY AND/OR WEATHER CONDITIONS ARE NOT AVAILABLE.

MNZ060>063-068>070-222300-
   Twin Cities Metro

CITY           SKY/WX    TMP DP  RH WIND       PRES   REMARKS
TWIN CITIES    MOSUNNY   58  26  29 N10G23    30.05F
ST PAUL        SUNNY     57  26  30 N14       30.06F
CRYSTAL        SUNNY     58  26  29 N9        30.04F
EDEN PRAIRIE   MOSUNNY   59  30  33 N7        30.03F
LAKEVILLE      MOSUNNY   57  28  33 N13       30.04F
SOUTH ST PAUL  SUNNY     60  25  26 N12G20    30.05F
LAKE ELMO      FAIR      55  28  35 NE9       30.06F
$$
MNZ001>005-007-008-013>017-022>024-027-028-222300-
   Northwest Minnesota

CITY           SKY/WX    TMP DP  RH WIND       PRES   REMARKS
BEMIDJI        SUNNY     54  25  32 NE9G16    30.05F
HALLOCK        CLOUDY    59  30  33 SE6       30.02F
ROSEAU         SUNNY     54  32  43 E6        30.06S
WARROAD        SUNNY     46  25  42 E8        30.09F
THIEF RVR FALL SUNNY     55  30  38 NE8       30.04F
CROOKSTON      SUNNY     61  30  31 E6        30.02F
FOSSTON        SUNNY     61  28  29 NE6       30.03F
DETROIT LAKES  MOSUNNY   59  32  36 SE7       30.02F
MOORHEAD       SUNNY     63  25  23 E8        30.01F
PARK RAPIDS    SUNNY     57  27  31 MISG      30.02F
$$
MNZ006-009>011-018-025>026-222300-
   North Central Minnesota

CITY           SKY/WX    TMP DP  RH WIND       PRES   REMARKS
BAUDETTE       SUNNY     52  19  27 N7        30.08F
FLAG ISLAND    SUNNY     37  27  65 S6        30.09S
INTL FALLS     SUNNY     51  21  30 VRB5      30.07F
WASKISH        SUNNY     52  25  35 W7        30.07F
BIG FORK       SUNNY     55  18  22 NW5       30.06F
LONGVILLE      SUNNY     54  25  32 CALM      30.05F
GRAND RAPIDS   SUNNY     54  19  26 N8        30.07F
CRANE LAKE     SUNNY     52  19  28 NW10      30.09F
ORR            SUNNY     52  16  24 NW7       30.05S
COOK           SUNNY     52  21  30 NW8       30.07S
$$
MNZ012-019>021-037-222300-
   Northeast Minnesota

CITY           SKY/WX    TMP DP  RH WIND       PRES   REMARKS
DULUTH         SUNNY     53  22  29 N12       30.05F
ELY            SUNNY     48  18  29 NW13      30.06R
HIBBING        SUNNY     54  20  26 NW8       30.05F
EVELETH        SUNNY     52  19  28 N8        30.07S
DULUTH HARBOR  SUNNY     54  21  28 CALM      30.08S
TWO HARBORS    SUNNY     52  25  35 NW6       30.04S
SILVER BAY     SUNNY     46  28  49 SE8       30.04S
GRAND MARAIS     N/A     40  29  64 SE3       30.08R
G MARAIS ARPRT MOSUNNY   46  16  29 N6        30.04R
$$
MNZ029>031-032-039>041-046>048-054>057-064-222300-
   West Central Minnesota

CITY           SKY/WX    TMP DP  RH WIND       PRES   REMARKS
FERGUS FALLS   SUNNY     61  27  27 SE10      29.98F
WHEATON        PTSUNNY   64  37  36 E14       30.02F
MORRIS         PTSUNNY   61  30  31 SE6       30.01F
ALEXANDRIA     MOSUNNY   58  33  39 CALM      30.04F
ELBOW LAKE     FAIR      59  33  36 CALM      30.01F
WADENA         MOSUNNY   57  30  35 E3        30.03F
GLENWOOD       MOSUNNY   59  30  33 SE3       30.05S
APPLETON       PTSUNNY   63  28  27 SE6       30.01F
BENSON         PTSUNNY   61  32  33 CALM      30.03F
ORTONVILLE     PTSUNNY   63  30  29 SE9       30.00F
MADISON        MOSUNNY   66  30  26 S7        30.00F
WILLMAR        FAIR      59  30  33 CALM      30.06S
$$
MNZ033>034-036-042>043-049>051-058-059-222300-
   Central Minnesota

CITY           SKY/WX    TMP DP  RH WIND       PRES   REMARKS
ST CLOUD       MOSUNNY   59  28  30 N10       30.05F
SAUK CENTRE    FAIR      57  31  37 CALM      30.04F
PAYNESVILLE    MOSUNNY   57  30  36 E3        30.05F
AITKIN         SUNNY     57  16  19 N5        30.04F
PINE RIVER     SUNNY     55  30  38 NE9       30.08F
BRAINERD       SUNNY     59  22  24 N8        30.06F
STAPLES        MOSUNNY   57  21  24 NE7       30.03F
LONG PRAIRIE   FAIR      57  30  35 NW5       30.04F
LITTLE FALLS   MOSUNNY   55  27  33 CALM      30.05S
LITCHFIELD     MOSUNNY   59  32  36 NE6       30.06S
BUFFALO        MOSUNNY   58  29  32 N8        30.05F
MAPLE LAKE     MOSUNNY   59  32  35 N12       30.06S
$$
MNZ037-044-045-052-053-222300-
   East Central Minnesota

CITY           SKY/WX    TMP DP  RH WIND       PRES   REMARKS
PRINCETON      SUNNY     57  27  30 N5        30.06S
MORA           SUNNY     54  27  35 NW3       30.07F
CAMBRIDGE      SUNNY     57  36  44 NW7       30.04F
RUSH CITY      SUNNY     56  26  31 N10       30.06F
MOOSE LAKE     SUNNY     54  23  30 N6        30.05S
HINCKLEY       FAIR      55  25  30 NE7       30.06F
CLOQUET        SUNNY     54  18  24 N9        30.06S
MCGREGOR       SUNNY     54  21  28 N6        30.07S
$$
MNZ071>073-080-081-089-090-097-098-222300-
   Southwest Minnesota

CITY           SKY/WX    TMP DP  RH WIND       PRES   REMARKS
MONTEVIDEO     PTSUNNY   64  32  29 E5        30.03F
GRANITE FALLS  MOSUNNY   61  33  34 NE6       30.04S
CANBY          MOSUNNY   63  32  31 E9        30.00F
MARSHALL       MOSUNNY   64  30  27 SE9       30.01F
REDWOOD FALLS  SUNNY     61  33  35 NE7       30.03F
OLIVIA         MOSUNNY   59  34  38 N3        30.04F
PIPESTONE      MOSUNNY   63  28  27 S9        29.99F
WINDOM         SUNNY     63  28  27 CALM      30.03F
WORTHINGTON    SUNNY     64  28  25 S7        30.03F
JACKSON        SUNNY     63  27  25 E7        30.03F
TRACY          MOSUNNY   63  31  29 CALM      30.02F
SLAYTON        SUNNY     63  28  26 E5        30.02F
$$
MNZ065>067-074>077-082>085-091>093-222300-
   South Central Minnesota

CITY           SKY/WX    TMP DP  RH WIND       PRES   REMARKS
MANKATO        MOSUNNY   57  30  35 N8        30.06S
NEW ULM        SUNNY     59  34  38 E6        30.05S
ST JAMES       SUNNY     63  30  29 N7        30.05F
FAIRMONT       SUNNY     63  28  27 N6        30.06F
GLENCOE        MOSUNNY   59  29  31 NE6       30.05S
FARIBAULT      MOSUNNY   61  27  27 CALM      30.04F
OWATONNA       MOSUNNY   57  28  33 N9        30.05R
WASECA         SUNNY     55  27  33 N9        30.07S
ALBERT LEA     MOSUNNY   57  32  38 N7        30.05S
$$
MNZ078>079-086>088-094>096-222300-
   Southeast Minnesota

CITY           SKY/WX    TMP DP  RH WIND       PRES   REMARKS
ROCHESTER      MOSUNNY   57  32  38 N15G22    30.04F
RED WING       SUNNY     57  25  28 VRB9G16   30.04F
STANTON        MOSUNNY   59  29  32 N12G20    30.03F
DODGE CENTER   MOSUNNY   57  21  24 N14G21    30.04F
WINONA         SUNNY     59  28  31 N7G24     30.03F
AUSTIN         SUNNY     57  30  35 N8        30.04S
PRESTON        SUNNY     57  31  37 N16       30.04S
$$
ABBREVIATIONS USED IN REMARKS
   TC - TEMPERATURES IN CELSIUS
  WCI - WIND CHILL INDEX
   HX - HEAT INDEX
  VSB - VISIBILITY
$$


USA.gov is the U.S. government's official web portal to all federal, state and local government web resources and services.